Погода в Тюрнясево

Россия / Республика Татарстан     54°35′19″N   50°35′08″E
темп.,
°C
ветер,
м/с
пор.,
м/с
влажн.,
%
обл.,
%
осадки,
мм/ч
давл.,
гПа
погр.,
м
16 апреля, пт
пт1600:00+12ю116298 0.0 101910
03:00+11ююв0064100 0.0 101910
06:00+11св2264100 0.0 101915
09:00+15св4556100 0.0 1020384
12:00+18св555190 0.0 1020813
15:00+18св555337 0.0 10211045
18:00+15св6106647 0.0 1021444
21:00+11св6127932 0.0 1023375
17 апреля, сб
сб1700:00+9св5108624 0.0 1023321
03:00+7св510885 0.0 1024289
06:00+6св510815 0.0 1025339
09:00+11всв68565 0.0 1025623
12:00+14всв67445 0.0 10241036
15:00+15всв66405 0.0 10231156
18:00+12св58455 0.0 1024288
21:00+8св410535 0.0 1024237
18 апреля, вс
вс1800:00+7всв411592 0.0 1024270
03:00+5св38695 0.0 1024176
06:00+5всв410674 0.0 1024327
09:00+10всв67471 0.0 1024841
12:00+13всв563665 0.0 10231276
15:00+14всв6635100 0.0 10231544
18:00+12всв594847 0.0 1023333
21:00+8всв81467100 0.0 1024468
19 апреля, пн
пн1900:00+6всв61272100 0.0 1025489
03:00+5всв61272100 0.0 1026509
06:00+3всв81360100 0.0 1027547
09:00+5в81056100 0.0 1028868
12:00+9в8104991 0.0 10281386
15:00+8в894994 0.0 10281407
18:00+7в6105973 0.0 10291136
21:00+6в51060100 0.0 1030746
20 апреля, вт
вт2000:00+5в6115584 0.0 1030678
03:00+3вюв6125533 0.0 1031557
06:00+2вюв6125119 0.0 1032613
09:00+6юв7104068 0.0 1032911
12:00+9вюв89365 0.0 10301174
15:00+11вюв8103269 0.0 10291293
18:00+9юв7113599 0.0 1029705
21:00+7юв61340100 0.0 1029528